Location: La Chaud
(46.1098°N, 1.7333°E)
Time: 18:26:24
(UTC+00:00)

Daily predictions for brighter satellites

Satellite Brightness Start Highest point End
(mag) Time Altitude Azimuth Time Altitude Azimuth Time Altitude Azimuth
NOAA 12 4.1 17:07:41 10° SSE 17:12:58 76° ENE 17:18:18 10° N
Cosmos 2227 Rocket 2.8 17:08:21 10° NNW 17:13:34 36° NE 17:18:45 10° ESE
USA 215 4.2 17:08:38 10° ENE 17:14:24 34° N 17:20:09 10° WNW
Cosmos 1892 4.1 17:12:39 10° NNE 17:15:25 18° ENE 17:18:11 10° ESE
ATLAS 2AS CENTAUR R/B 4.2 17:09:40 10° NW 17:15:41 24° NNE 17:21:23 10° ENE
Helios 1A Rocket 4.2 17:12:42 10° ESE 17:15:45 21° ENE 17:18:49 10° NNE
Cosmos 2228 3.0 17:11:48 10° S 17:15:59 63° E 17:20:14 10° NNE
Cosmos 2263 Rocket 4.2 17:15:25 10° NNE 17:16:16 10° NNE 17:17:06 10° NE
Cosmos 1758 Rocket 3.7 17:12:38 10° N 17:17:03 82° W 17:21:24 10° S
Aureole 3 Rocket 4.0 17:14:05 10° SSE 17:17:43 31° E 17:22:30 10° NNE
Cosmos 1400 Rocket 3.7 17:14:15 10° SSE 17:17:51 30° E 17:21:25 10° NNE
Meteor 2-21 4.5 17:12:38 10° N 17:18:50 84° E 17:24:56 10° S
Cosmos 292 Rocket 3.8 17:15:18 10° S 17:20:02 63° ESE 17:24:49 10° NNE
Cosmos 968 Rocket 4.2 17:18:34 10° N 17:23:17 33° ENE 17:27:56 10° ESE
Cosmos 1300 2.7 17:22:24 10° S 17:26:09 59° E 17:29:55 10° NNE
FALCON 9 DEB 2.9 17:23:10 10° WSW 17:26:24 86° SE 17:29:34 10° ENE
Lacrosse 5 3.4 17:23:22 10° WNW 17:27:31 24° N 17:31:39 10° NE
Cosmos 1606 Rocket 3.5 17:24:32 10° S 17:28:54 82° E 17:33:20 10° N
Cosmos 1697 Rocket 3.8 17:25:11 10° SSE 17:29:19 22° E 17:33:28 10° NE
FALCON 9 DEB 2.9 17:26:18 10° WSW 17:29:30 85° NNW 17:32:31 11° ENE
CZ-4 R/B 2.5 17:26:33 10° ESE 17:29:30 21° ENE 17:32:27 10° NNE
SMAP 3.5 17:25:54 10° S 17:30:32 69° WSW 17:35:12 10° NNW
Cosmos 2058 4.1 17:29:19 10° NNE 17:32:30 21° ENE 17:35:40 10° ESE
Cosmos 1825 3.9 17:31:55 10° NE 17:33:44 13° ENE 17:34:21 13° ENE
SAR-Lupe-4 3.9 17:31:28 10° NNE 17:34:56 43° E 17:38:22 10° S
Cosmos 1110 Rocket 4.4 17:32:07 10° SSW 17:37:20 67° WNW 17:42:33 10° NNE
CZ-2D R/B 3.9 17:34:03 10° SE 17:37:28 32° ENE 17:40:53 10° N
SKYMED 2 4.0 17:34:23 10° NNE 17:38:30 40° E 17:42:35 10° SSE
ERS-2 2.1 17:35:15 10° NNE 17:38:55 86° WNW 17:42:33 10° SSW
Cosmos 1302 Rocket 4.0 17:34:18 10° S 17:39:28 63° ESE 17:44:43 10° NNE
SL-4 R/B 2.7 17:36:53 10° WNW 17:40:09 34° N 17:42:47 15° ENE
NOAA 11 4.1 17:35:18 10° SSE 17:40:45 82° ENE 17:46:13 10° NNW
ADEOS Rocket 4.0 17:34:45 10° N 17:41:01 56° WNW 17:47:56 10° SW
Okean-O 3.2 17:38:04 10° SE 17:42:04 34° ENE 17:46:06 10° N
Cosmos 1346 Rocket 3.7 17:38:50 10° NNE 17:42:16 27° ENE 17:45:43 10° SE
FALCON 9 DEB 3.1 17:39:39 10° WSW 17:42:52 71° NNW 17:45:25 15° NE
USA 281 3.7 17:36:46 10° SSE 17:43:16 65° WSW 17:49:50 10° NNW
Cosmos 1340 2.7 17:42:11 10° N 17:45:55 58° ENE 17:49:38 10° SSE
Meteor 2-16 Rocket 4.5 17:41:21 10° N 17:47:29 89° E 17:53:35 10° S
Cosmos 1486 Rocket 4.1 17:43:16 10° NNW 17:48:31 54° ENE 17:53:42 10° SE
Cosmos 1315 Rocket 3.9 17:47:12 10° SE 17:50:22 23° E 17:53:35 10° NE
Cosmos 1745 Rocket 4.3 17:44:30 10° N 17:50:29 43° ENE 17:56:28 10° SE
Cosmos 1980 Rocket 3.5 17:48:57 10° SE 17:52:34 18° E 17:53:26 17° E
SAR-Lupe-1 4.0 17:49:15 10° NNE 17:52:51 68° ESE 17:56:25 10° S
USA 305 3.3 17:48:53 10° NW 17:53:04 47° NNE 17:55:44 20° E
YAOGAN 3 4.5 17:49:01 10° SSE 17:53:23 81° ENE 17:57:46 10° NNW
Cosmos 2297 Rocket 2.1 17:47:46 10° NNW 17:53:29 81° ENE 17:59:09 10° SSE
FALCON 9 DEB 3.4 17:50:18 10° WSW 17:53:29 57° NNW 17:55:34 19° NE
Cosmos 1689 Rocket 2.2 17:50:42 10° NNE 17:53:31 47° E 17:56:18 10° S
In-Cosmos 22 Rocket 4.0 17:50:21 10° N 17:55:43 70° ENE 18:01:11 10° SSE
CZ-4B R/B 2.1 17:53:09 10° N 17:56:18 51° WNW 17:59:21 10° SSW
Cosmos 1503 Rocket 4.5 17:53:34 10° N 17:58:27 39° ENE 18:03:11 11° SE
Cosmos 1953 Rocket 4.3 17:55:11 10° NNW 17:59:32 58° W 18:03:53 10° S
USA 306 3.2 17:55:22 10° NW 17:59:33 50° NNE 18:01:57 23° E
Aureole 3 2.5 17:56:49 10° S 17:59:55 89° ESE 18:02:55 10° N
Cosmos 2058 Rocket 3.1 18:00:06 10° S 18:04:36 86° W 18:09:08 10° N
CZ-2C R/B 3.4 18:02:40 10° SE 18:08:17 53° ENE 18:13:44 10° N
Cosmos 1354 Rocket 4.4 18:05:40 10° N 18:10:40 43° ENE 18:14:14 18° SE
CZ-4C R/B 4.0 18:08:31 10° NNW 18:13:46 24° NNE 18:17:00 18° ENE
Cosmos 1455 2.5 18:10:30 10° SSE 18:14:04 42° E 18:17:16 13° NNE
Cosmos 1992 Rocket 4.0 18:12:12 10° S 18:17:15 55° ESE 18:22:20 10° NNE
Meteor 2-10 Rocket 3.4 18:14:27 10° S 18:19:41 64° E 18:24:46 10° NNE
Cosmos 1709 Rocket 4.4 18:14:05 10° N 18:20:07 42° ENE 18:26:07 10° SE
Cosmos 1076 Rocket 3.6 18:17:40 10° N 18:21:49 50° ENE 18:25:01 16° SSE
Cosmos 2278 4.3 18:18:45 10° SSE 18:23:45 33° ESE 18:24:51 30° E
Cosmos 2219 3.9 18:19:45 10° NNW 18:25:23 56° WSW 18:30:59 10° S
COSMO-SKYMED 1 3.0 18:22:18 10° N 18:26:37 64° WNW 18:30:54 10° SSW
Ariane Rocket 4.4 18:30:46 21° NE 18:30:46 21° NE 18:33:25 10° N
Geosat 4.2 18:29:49 29° NE 18:32:02 48° ESE 18:36:53 10° S
SL-08 ROCKET BODY 4.5 18:26:31 10° N 18:32:39 84° W 18:38:49 10° S
Cosmos 2082 3.6 18:27:42 10° NNW 18:33:28 78° ENE 18:38:04 16° SSE
ATLAS 5 CENTAUR R/B 4.3 18:32:21 10° NNW 18:33:46 11° N 18:35:13 10° NNE
H-2A R/B 2.1 18:29:28 10° SSE 18:34:48 63° ENE 18:40:13 10° N
SJ-11-01 4.2 18:34:07 19° SSE 18:37:23 65° ENE 18:42:02 10° N
Cosmos 1939 Rocket 4.4 18:34:29 10° SSW 18:38:09 36° W 18:41:47 10° NNW
ARGOS 3.3 18:36:01 30° SE 18:38:24 51° ENE 18:43:39 10° N
YAOGAN 1 2.6 18:35:46 10° S 18:40:05 79° WSW 18:44:27 10° NNW
S3M 3.9 18:34:33 10° S 18:40:40 89° E 18:46:53 10° N
CRYOSAT 2 4.2 18:36:11 10° N 18:41:04 73° E 18:45:54 10° S
Cosmos 2315 Rocket 4.1 18:36:30 10° SSE 18:42:24 48° E 18:48:19 10° NNE
USA 307 2.8 18:38:41 10° WNW 18:42:59 85° NNE 18:43:36 65° ESE
GEOS 3 Rocket 3.7 18:41:32 41° ESE 18:43:18 63° NE 18:48:38 10° NNW
Cosmos 1656 4.2 18:38:10 10° SW 18:43:38 58° WNW 18:49:14 10° NNE
SeaSat 1 2.7 18:43:27 44° ENE 18:43:45 45° NE 18:48:27 10° NNW
Cosmos 1408 2.9 18:41:08 10° NNW 18:44:45 64° W 18:48:23 10° S
NOSS 3-4 (A) 4.1 18:39:40 10° NNW 18:46:20 49° NE 18:48:36 38° E
NOSS 3-4 (C) 4.1 18:39:46 10° NNW 18:46:26 49° NE 18:48:40 38° E
Cosmos 1812 Rocket 3.4 18:42:43 10° S 18:47:06 78° E 18:51:30 10° NNE
Cosmos 2369 3.6 18:41:56 10° SSW 18:47:38 76° ESE 18:51:18 23° NNE
USA 308 2.7 18:43:36 10° WNW 18:47:55 90° S 18:48:20 72° SE
DEBRIS 4.5 18:27:56 10° WSW 18:49:27 83° SSE 18:51:52 41° ENE
Helios 1A Rocket 4.3 18:46:46 10° S 18:50:40 40° W 18:54:33 10° NNW
Cosmos 1892 4.3 18:47:39 10° NNW 18:51:14 36° W 18:54:47 10° SSW
NOSS 3-3 (A) 3.8 18:49:35 10° SW 18:55:26 88° NW 18:59:03 28° NE
NOSS 3-3 (C) 3.8 18:49:42 10° SW 18:55:32 89° NW 18:59:06 29° NE
USA 215 3.8 18:54:35 35° NE 18:56:30 43° NNE 19:02:35 10° NW
Cosmos 2227 Rocket 3.5 18:52:26 10° NW 18:57:40 40° WSW 19:02:53 10° S
CSL-04 Rocket 3.7 18:52:32 10° SSE 18:58:06 85° WSW 19:03:39 10° NNW
MOS 1 Rocket 3.2 18:53:41 10° NNE 18:58:25 89° E 19:03:25 10° SSW
Cosmos 2263 Rocket 2.8 18:56:30 10° NNW 19:01:10 39° NE 19:01:10 39° NE
CZ-4 R/B 3.0 19:00:50 10° SSW 19:04:22 33° W 19:07:53 10° NNW
Cosmos 2151 4.5 19:03:08 10° N 19:05:02 26° N 19:05:02 26° N
ATLAS 2AS CENTAUR R/B 2.9 19:01:06 10° NW 19:08:30 52° NE 19:09:28 49° ENE
BREEZE-M R/B 3.9 19:04:23 10° WNW 19:08:54 83° NNE 19:10:34 55° E
Cosmos 1825 3.0 19:05:54 10° NNW 19:09:13 49° WNW 19:09:13 49° WNW
Lacrosse 5 3.1 19:07:22 10° NW 19:11:26 29° N 19:11:26 29° N
Cosmos 1697 Rocket 3.1 19:07:14 10° SW 19:12:46 62° WNW 19:16:32 21° NNE
Atlas Centaur 2 4.2 19:07:40 10° SW 19:14:21 26° S 19:16:24 24° SSE
Cosmos 44 Rocket 3.5 19:13:11 10° SW 19:17:10 62° SW 19:17:10 62° SW
SL-4 R/B 3.5 19:16:25 10° WNW 19:18:22 30° NW 19:18:22 30° NW
USA 305 4.4 19:29:00 10° WNW 19:31:54 34° W 19:31:54 34° W
Cosmos 1980 Rocket 2.4 19:30:16 10° SSW 19:35:17 67° WSW 19:35:17 67° WSW
BREEZE-M TANK 4.2 19:36:30 10° W 19:39:30 30° WSW 19:39:30 30° WSW
CZ-4C R/B 3.4 19:56:46 10° NW 20:02:11 50° N 20:02:11 50° N
H-2A R/B 4.5 20:10:43 10° SW 20:14:39 20° W 20:18:38 10° NW
USA 215 4.4 20:41:56 38° NW 20:41:56 38° NW 20:45:44 10° NW
Cosmos 2263 Rocket 4.3 20:40:37 10° NW 20:42:51 22° WNW 20:42:51 22° WNW
ATLAS 2AS CENTAUR R/B 4.2 20:52:30 10° NW 20:56:54 33° WNW 20:56:54 33° WNW
